Mobridge, SD

5:54 PM CST on December 17, 2017 (GMT -0600)
Mobridge Municipal

Weather History for KMBG - March, 2015

Change the Weather History Date:

Tuesday, March 3, 2015

  Actual Average Record
Temperature  
Mean Temperature 17 °F 26 °F  
Max Temperature 33 °F 37 °F 67 °F (2000)
Min Temperature 0 °F 16 °F -22 °F (1916)
Degree Days  
Heating Degree Days 48 39  
Month to date heating degree days 135 118  
Since 1 July heating degree days 5894 6093  
Cooling Degree Days 0 0  
Month to date cooling degree days 0 0  
Year to date cooling degree days 0 0  
Moisture  
Dew Point 4 °F    
Average Humidity 59    
Maximum Humidity 79    
Minimum Humidity 39    
Precipitation  
Precipitation T in 0.02 in 0.85 in (1966)
Month to date precipitation T 0.07  
Year to date precipitation 0.80 0.80  
Snow  
Snow T in - - ()
Month to date snowfall T  
Since 1 July snowfall 18.7  
Snow Depth T in    
Sea Level Pressure  
Sea Level Pressure 29.98 in    
Wind  
Wind Speed 21 mph (NNW)    
Max Wind Speed 37 mph    
Max Gust Speed 45 mph    
Visibility 10 miles    
Events Snow    
T = Trace of Precipitation, MM = Missing Value Source: NWS Daily Summary

Daily Weather History Graph

Daily Weather History Graph

Search for Another Location

Airport or City:

Trip Planner

Search our weather history database for the weather conditions in past years. The results will help you decide how hot, cold, wet, or windy it might be!

Date:

Astronomy

Mar. 03, 2015 Rise Set
Actual Time 7:16 AM CST 6:31 PM CST
Civil Twilight 6:47 AM CST 7:00 PM CST
Nautical Twilight 6:12 AM CST 7:35 PM CST
Astronomical Twilight 5:38 AM CST 8:09 PM CST
Moon 4:53 PM CST (3/3) 6:01 AM CST (3/3)
Length of Visible Light 12h 13m
Length of Day
11h 14m
Waxing Gibbous, 96% of the Moon is Illuminated
Mar 3
Waxing Gibbous
Mar 5
Full
Mar 13
Last Quarter
Mar 20
New
Mar 27
First Quarter

Hourly Weather History & Observations

Time (CST) Temp. Windchill Dew Point Humidity Pressure Visibility Wind Dir Wind Speed Gust Speed Precip Events Conditions
12:52 AM 30.9 °F 17.5 °F 21.0 °F 67% 29.72 in 10.0 mi North 24.2 mph 34.5 mph N/A   Overcast
1:52 AM 25.0 °F 8.6 °F 18.0 °F 75% 29.78 in 10.0 mi North 27.6 mph 38.0 mph N/A   Overcast
2:52 AM 21.0 °F 3.6 °F 12.0 °F 68% 29.82 in 10.0 mi North 26.5 mph 36.8 mph N/A   Overcast
3:11 AM 19.9 °F 1.3 °F 12.0 °F 71% 29.77 in 10.0 mi North 29.9 mph 39.1 mph N/A   Overcast
3:33 AM 19.9 °F 2.8 °F 12.0 °F 71% 29.77 in 10.0 mi North 24.2 mph 35.7 mph N/A   Overcast
3:52 AM 19.9 °F 3.2 °F 12.0 °F 71% 29.83 in 10.0 mi North 23.0 mph 34.5 mph N/A   Overcast
4:44 AM 18.0 °F -0.8 °F 10.9 °F 74% 29.80 in 5.0 mi NNW 27.6 mph 40.3 mph 0.00 in Snow Light Snow
4:52 AM 18.0 °F -0.2 °F 10.9 °F 74% 29.86 in 3.0 mi NNW 25.3 mph 34.5 mph 0.00 in Snow Light Snow
5:26 AM 17.1 °F -2.7 °F 7.0 °F 65% 29.82 in 8.0 mi NNW 29.9 mph 43.7 mph 0.00 in   Overcast
5:52 AM 16.0 °F -4.7 °F 3.9 °F 59% 29.90 in 10.0 mi NNW 32.2 mph 43.7 mph 0.00 in   Overcast
6:52 AM 14.0 °F -6.5 °F 3.0 °F 62% 29.96 in 10.0 mi NNW 28.8 mph 38.0 mph N/A   Overcast
7:52 AM 12.0 °F -9.5 °F -0.0 °F 59% 30.01 in 10.0 mi NNW 29.9 mph 36.8 mph N/A   Overcast
8:52 AM 12.9 °F -7.6 °F 1.9 °F 62% 30.04 in 10.0 mi NNW 27.6 mph 34.5 mph N/A   Overcast
9:23 AM 12.9 °F -6.5 °F 1.9 °F 62% 29.98 in 9.0 mi NNW 24.2 mph 33.4 mph N/A   Mostly Cloudy
9:52 AM 12.9 °F -8.0 °F -0.9 °F 54% 30.07 in 10.0 mi NNW 28.8 mph 36.8 mph N/A   Scattered Clouds
10:52 AM 14.0 °F -5.1 °F -2.9 °F 47% 30.07 in 10.0 mi NNW 24.2 mph 34.5 mph N/A   Clear
11:52 AM 16.0 °F -3.5 °F -0.9 °F 47% 30.06 in 10.0 mi NW 27.6 mph 35.7 mph N/A   Clear
12:52 PM 19.0 °F 1.6 °F -0.0 °F 43% 30.06 in 10.0 mi NNW 24.2 mph 33.4 mph N/A   Scattered Clouds
1:52 PM 19.9 °F 3.5 °F -0.0 °F 42% 30.04 in 10.0 mi NNW 21.9 mph 31.1 mph N/A   Scattered Clouds
2:52 PM 19.9 °F 5.2 °F -0.0 °F 42% 30.05 in 10.0 mi NW 17.3 mph 28.8 mph N/A   Partly Cloudy
3:52 PM 19.9 °F 2.8 °F -0.9 °F 40% 30.04 in 10.0 mi NW 24.2 mph 32.2 mph N/A   Partly Cloudy
4:52 PM 19.0 °F 2.0 °F -2.0 °F 40% 30.05 in 10.0 mi WNW 23.0 mph 32.2 mph N/A   Partly Cloudy
5:52 PM 18.0 °F 0.9 °F -2.9 °F 40% 30.06 in 10.0 mi NW 21.9 mph 27.6 mph N/A   Clear
6:52 PM 14.0 °F -0.2 °F -0.9 °F 52% 30.09 in 10.0 mi NNW 12.7 mph - N/A   Clear
7:52 PM 10.0 °F -1.9 °F -0.9 °F 61% 30.12 in 10.0 mi North 8.1 mph - N/A   Clear
8:52 PM 8.1 °F -0.5 °F -0.9 °F 67% 30.14 in 10.0 mi NNW 4.6 mph - N/A   Clear
9:52 PM 3.9 °F -3.4 °F -2.0 °F 76% 30.16 in 10.0 mi NW 3.5 mph - N/A   Clear
10:52 PM 3.0 °F -4.4 °F -2.9 °F 76% 30.16 in 10.0 mi NNW 3.5 mph - N/A   Clear
11:52 PM -0.0 °F -7.9 °F -4.0 °F 83% 30.17 in 10.0 mi North 3.5 mph - N/A   Clear